Regional Weather Roundup
Issued by NWS State College, PA

Home | Current Version | Previous Version | Graphics & Text | Print | Product List | Glossary On
Versions: 1 2 3 4 5 6 7 8 9 10 11 12 13 14 15 16 17 18 19 20 21 22 23 24 25 26 27 28 29 30 31 32 33 34 35 36 37 38 39 40 41 42 43 44 45 46 47 48 49 50
000
ASUS41 KCTP 281210
RWRCTP

REGIONAL WEATHER ROUNDUP
NATIONAL WEATHER SERVICE STATE COLLEGE PA
700 AM EST WED JAN 28 2015

Note: "fair" indicates few or no clouds below 12,000 feet with no
significant weather and/or obstructions to visibility.

* = STATION THAT DOES NOT REPORT PRECIPITATION /E.G. RAIN...SNOW...ETC/
    THUNDER OR FOG.

PAZ002>004-007>009-013>016-020>023-029>032-281300-
WESTERN PENNSYLVANIA

CITY           SKY/WX    TMP DP  RH WIND       PRES   REMARKS
ERIE           PTCLDY     3  -2  79 S6        30.27R WCI  -8
MEADVILLE      MOCLDY     5   1  83 SW3       30.20R
FRANKLIN*      MOCLDY     7   1  78 W3        30.21R
NEW CASTLE     FAIR      -1  -4  87 CALM      30.27R
BEAVER COUNTY  CLEAR      9   7  92 CALM      30.24
BUTLER*        CLOUDY    12   9  85 SW9       30.25R WCI   0
PITTSBURGH INT FLURRIES  11   8  88 W6        30.25R WCI   1
PITTSBURGH     LGT SNOW  12   6  77 W9        30.25R WCI   0
INDIANA*       CLOUDY     7   5  92 W3        30.26R
LATROBE        MOCLDY     7   7 100 SW7       30.28R WCI  -5
WASHINGTON CO* CLOUDY    12   7  79 MISG      30.27R
$$

PAZ004>006-010>012-017>019-024>028-033>037-041-042-045-046-049>053-281300-
CENTRAL PENNSYLVANIA

CITY           SKY/WX    TMP DP  RH WIND       PRES   REMARKS
BRADFORD       PTCLDY     0  -4  83 W5        30.10R WCI -10
DUBOIS         CLOUDY     8   4  83 W8        30.15R WCI  -4
CLEARFIELD     CLOUDY     9   5  84 SW5       30.17R WCI   1
JOHNSTOWN      CLOUDY     9   5  84 W12       30.10R WCI  -6
ALTOONA        CLEAR     12   5  73 CALM      30.15R
STATE COLLEGE  PTCLDY     9   3  78 SW9       30.16R WCI  -5
WILLIAMSPORT   CLEAR     11   2  67 W20       30.15R WCI  -7
SELINSGROVE    CLEAR     15   2  56 W6        30.16R WCI   6
FT INDIANTOWN  CLEAR     18  -1  44 NW15G23   30.11R WCI   3
CAPITAL CITY   CLEAR     18   2  49 W10       30.14R WCI   6
HARRISBURG     PTCLDY    17   4  56 NW14G21   30.13R WCI   3
YORK           CLEAR     15   2  56 NW9       30.12R WCI   3
$$

PAZ038>040-043-044-047-048-054-055-060>062-067>071-281300-
EASTERN PENNSYLVANIA

CITY           SKY/WX    TMP DP  RH WIND       PRES   REMARKS
SCRANTON       CLEAR     11  -1  58 N7        30.06R WCI   0
MOUNT POCONO   PTCLDY     8   1  73 NW25G45   29.85R BLWGSNOWWCI -13
ALLENTOWN      CLEAR     16  -3  43 NW10G18   30.05R WCI   4
QUAKERTOWN*    NOT AVBL
READING        CLEAR     16  -1  47 NW10      30.09R WCI   4
LANCASTER      CLEAR     15   0  51 NW14      30.09R WCI   0
COATESVILLE    SUNNY     18   1  49 NW16G23   30.05R WCI   3
POTTSTOWN      CLEAR     15  -1  49 W8        30.07R WCI   4
BLUE BELL      CLEAR     19   0  42 CALM      30.04R
DOYLESTOWN     CLEAR     14  -2  49 NW10G21   30.01R WCI   1
WILLOW GROVE   NOT AVBL
NORTH PHILA    CLEAR     20  -4  34 NW10G21   30.06R WCI   9
PHILADELPHIA   PTCLDY    20  -2  38 NW16      30.07R WCI   6
$$



USA.gov is the U.S. government's official web portal to all federal, state and local government web resources and services.